Probability
0 0 0 0 0 0 0 0 0 0 0 0 0 0 0 0 0 0 1 1 1 1 3 6 11 19 19 14 12 8 4 1 1 4 5 5 4 2 1 0 0 0 0 0
0 0 0 0 0 0 0 0 0 0 0 0 0 0 0 0 0 0 1 1 1 2 5 8 13 19 20 16 13 10 6 3 2 3 3 3 2 1 0 0 0 0 0 0
0 0 0 0 0 0 0 0 0 0 0 0 0 0 0 0 0 0 1 1 2 4 6 9 13 18 20 18 15 12 9 5 4 3 3 3 2 1 0 0 0 0 0 0
0 0 0 0 0 0 0 0 0 0 0 0 0 0 0 0 0 0 0 1 2 5 8 9 11 16 20 19 16 13 10 8 6 5 6 6 4 2 1 0 0 0 0 0
0 0 0 0 0 0 0 0 0 0 0 0 0 0 0 0 0 0 0 0 2 5 8 8 9 14 18 17 15 14 12 9 7 6 7 7 6 4 1 0 0 0 0 0
0 0 0 0 0 0 0 0 0 0 0 0 0 0 0 0 0 0 0 1 2 4 7 8 9 14 17 16 14 15 12 9 7 6 6 7 6 5 3 1 0 0 0 0
0 0 0 0 0 0 0 0 0 0 0 0 0 0 0 0 0 0 1 2 4 6 8 11 13 17 20 18 17 16 13 9 7 7 7 6 6 4 3 1 0 0 0 0
0 0 0 0 0 0 0 0 0 0 0 0 0 0 0 1 1 2 2 4 7 9 10 13 16 19 21 21 21 20 15 11 9 9 10 8 6 3 1 0 0 0 0 0
0 0 0 0 0 0 0 0 0 0 0 0 0 0 1 2 4 5 5 6 9 10 10 12 15 18 20 21 21 20 17 13 10 10 12 11 8 5 3 2 1 1 1 1
0 0 0 0 0 0 0 0 0 0 0 0 0 0 1 3 5 6 7 8 10 11 11 13 15 16 18 19 18 17 15 13 11 11 12 14 12 9 7 5 3 2 2 2
0 0 0 0 0 0 0 0 0 0 0 0 0 0 0 2 3 6 7 9 11 13 15 16 17 17 17 17 15 14 13 13 12 11 13 16 15 12 9 6 5 4 4 4
0 0 0 0 0 0 0 0 0 0 0 0 0 0 2 3 4 5 7 10 13 15 17 19 19 18 18 17 15 13 11 11 13 14 17 19 18 14 10 7 7 7 6 5
0 0 0 0 0 0 0 0 0 0 0 0 0 2 5 8 9 9 10 12 15 17 19 20 21 22 22 23 20 15 13 12 15 19 22 23 21 16 12 10 9 8 6 5
0 0 0 0 0 0 0 0 0 0 0 0 1 4 9 13 16 16 15 16 18 20 20 21 22 25 27 27 26 22 18 17 20 24 25 25 23 21 17 15 12 10 6 4
0 0 0 0 0 0 0 1 1 1 1 1 3 7 11 16 21 22 21 22 23 25 24 23 24 27 28 29 29 27 23 23 25 28 29 28 27 26 23 20 18 14 9 5
0 0 0 0 0 0 0 1 2 2 2 2 4 8 13 19 25 27 27 26 27 28 27 25 25 27 29 30 30 29 28 28 30 31 34 35 33 31 28 25 22 19 13 9
0 0 0 0 0 0 0 1 1 3 4 4 6 9 15 22 27 29 28 27 27 26 24 24 24 26 28 30 31 31 32 34 34 35 37 39 39 36 33 29 25 22 19 17
0 0 0 0 0 0 0 0 0 1 2 5 9 14 18 23 26 26 25 25 24 21 20 21 23 25 26 26 29 31 33 35 37 38 39 39 41 41 38 33 29 26 22 20
0 0 0 0 0 0 0 0 0 0 1 5 13 20 22 23 24 22 22 25 24 21 21 22 25 27 29 28 28 30 33 35 37 39 40 40 42 43 40 34 31 28 24 20
0 0 0 0 0 0 0 0 0 0 1 5 14 21 22 22 21 20 23 28 29 27 27 27 30 33 35 34 32 33 36 37 38 40 40 42 43 41 36 32 30 28 24 21
0 0 0 0 0 0 0 0 0 0 1 5 13 19 20 19 19 21 25 30 31 31 30 31 33 37 37 37 37 38 38 38 40 42 43 42 41 37 32 28 27 25 22 19
0 0 0 0 0 0 1 1 1 0 1 7 15 19 19 19 19 21 23 26 28 28 29 28 30 33 32 31 34 36 36 36 39 42 42 40 38 34 30 27 26 25 22 18
0 0 1 1 1 1 2 2 2 2 4 11 18 20 20 20 20 18 18 21 24 25 27 27 27 26 23 22 25 28 30 31 33 35 37 35 33 32 29 28 29 28 25 21
0 0 2 3 3 2 2 3 5 6 8 13 18 18 19 20 20 18 16 18 20 23 25 26 25 22 18 17 19 21 22 24 24 25 28 30 29 29 28 27 28 29 28 26
0 0 1 2 2 1 2 4 6 8 9 11 13 14 15 18 20 18 16 15 16 17 19 21 21 20 18 17 18 18 19 19 19 19 22 25 24 24 23 20 19 21 21 21
0 0 0 1 0 1 2 4 5 7 8 8 9 11 13 16 18 17 16 15 13 12 13 16 18 18 17 17 17 18 19 19 18 18 20 20 19 19 18 14 12 11 11 11
Wind_Speed
4 5 1 4 6 5 4 3 4 5 4 5 6 5 5 7 8 8 8 8 9 10 7 6 7 7 7 7 7 7 6 5 5 3 3 2 2 2 1 2 3 3 3 3
5 2 5 3 3 3 3 2 2 2 1 4 3 3 4 7 10 10 11 11 11 8 6 7 7 8 8 8 8 7 7 6 6 4 3 2 2 2 2 1 1 3 3 4
4 5 2 2 2 2 2 4 4 3 2 3 2 3 2 3 5 6 7 8 9 11 10 9 9 9 8 9 9 9 8 7 6 5 3 2 2 1 1 1 1 2 3 3
3 4 1 1 2 4 3 4 5 4 4 1 2 2 6 3 4 7 8 9 10 10 9 9 9 9 10 10 8 7 7 7 6 6 5 5 4 3 3 2 2 2 2 3
4 2 1 2 4 5 4 2 4 3 5 2 2 1 9 1 5 9 9 10 10 10 10 11 11 11 9 8 8 7 6 6 6 6 7 6 4 3 2 2 2 2 2 2
5 3 3 4 2 3 5 7 7 6 5 1 2 3 8 5 8 7 8 9 9 9 9 9 8 7 6 6 6 6 7 6 6 7 6 6 6 4 3 3 3 2 1 1
4 4 3 2 2 2 5 7 5 4 4 5 2 3 10 8 7 8 8 8 7 8 9 8 9 9 8 8 8 7 7 6 6 6 6 6 6 6 6 4 4 3 2 2
2 6 4 2 5 6 4 9 9 6 6 5 1 5 10 6 5 5 5 4 6 7 8 9 10 9 9 10 9 8 8 7 7 7 6 5 5 4 4 4 4 4 3 3
5 6 5 2 2 8 6 3 6 8 3 0 5 7 9 3 2 0 2 5 6 7 7 8 8 8 8 9 9 10 9 7 7 7 6 5 5 5 5 4 4 3 3 3
7 3 4 4 4 4 5 9 6 7 7 3 4 4 5 5 4 2 2 5 6 6 6 6 7 8 8 8 8 7 8 8 7 7 6 6 6 6 5 4 5 4 4 3
4 4 4 3 2 2 4 5 6 5 5 7 3 7 7 7 5 4 5 5 6 7 7 7 6 6 7 6 7 7 7 6 6 7 6 5 5 5 5 5 5 5 4 4
3 6 1 4 3 1 3 5 7 6 4 4 5 8 5 3 4 3 4 4 4 5 6 6 6 6 6 7 7 7 7 7 7 6 6 6 5 5 5 5 5 4 4 4
4 6 3 5 6 5 3 2 4 6 6 5 5 8 4 4 3 2 2 2 3 4 4 4 5 6 6 6 6 6 6 7 6 6 6 6 6 6 6 5 4 4 4 4
6 5 6 8 6 2 0 1 3 5 4 4 6 6 6 5 4 4 2 1 2 3 4 4 4 4 5 5 5 5 5 5 5 6 6 6 7 7 6 5 4 4 4 4
5 4 1 2 2 2 1 2 2 3 6 7 6 6 6 5 4 3 1 1 3 2 2 3 4 4 4 4 4 5 4 4 5 5 6 6 5 5 5 4 4 4 4 4
4 4 2 1 2 0 1 2 2 2 3 4 3 4 4 3 1 2 1 2 2 2 2 2 3 3 4 4 4 5 5 5 6 6 5 3 3 4 5 5 5 4 4 3
2 4 3 1 2 2 2 3 1 1 0 3 4 4 2 1 2 1 0 1 2 2 2 2 2 3 3 4 4 4 4 4 5 5 4 3 4 4 5 5 5 5 5 4
5 4 3 2 1 4 5 2 1 3 2 1 0 1 1 2 2 2 0 2 1 1 1 1 1 2 2 2 2 2 3 4 4 4 4 4 4 4 4 4 5 4 4 4
4 7 4 4 2 3 3 1 0 1 1 1 1 1 2 1 3 3 2 1 1 1 1 2 1 1 1 2 2 3 3 3 4 4 4 5 5 5 4 4 5 4 4 4
5 5 6 4 4 6 5 4 3 2 2 2 0 1 1 2 2 3 3 3 3 3 1 1 1 2 1 1 2 3 3 3 3 3 4 4 5 5 5 4 4 3 3 4
4 4 3 3 3 5 4 5 2 3 5 3 2 2 1 1 4 3 2 2 2 2 2 2 2 1 0 0 3 3 2 2 2 2 2 3 4 5 5 4 3 2 2 3
3 3 3 3 3 6 3 3 1 4 2 2 2 2 2 2 2 1 0 1 1 2 2 2 2 2 2 1 2 3 1 1 1 2 2 3 3 3 3 4 4 3 3 2
2 4 5 5 6 4 3 3 3 2 2 3 3 3 2 2 1 1 1 1 1 1 1 1 2 2 2 1 1 2 2 0 1 2 1 2 3 2 3 4 4 4 4 3
1 1 2 1 4 4 4 3 3 2 2 3 3 2 1 2 1 0 0 0 0 1 1 1 2 2 1 1 1 2 1 0 2 2 1 1 2 2 2 2 3 3 4 4
3 1 1 2 5 5 4 3 3 3 2 2 2 1 1 1 2 2 1 1 1 2 1 1 1 0 1 1 2 2 1 0 1 1 1 1 1 2 1 0 0 2 2 4
4 5 5 6 6 4 6 6 4 3 3 2 2 2 1 2 2 2 2 1 1 2 1 1 1 1 1 0 1 1 1 0 1 0 1 1 1 1 1 1 1 3 1 1
Wind_Direction
31 69 179 212 191 188 179 189 228 241 202 165 202 230 216 190 193 200 202 201 207 216 206 184 182 175 170 173 178 182 181 174 160 154 160 160 185 187 194 208 211 200 192 185
35 292 234 204 179 166 168 188 240 299 126 152 192 256 236 197 204 206 204 205 208 208 189 185 181 178 180 184 187 187 189 182 180 177 169 164 159 175 190 210 214 210 195 193
190 236 207 155 152 156 206 193 200 188 74 51 92 327 264 230 219 225 219 209 208 204 197 189 185 186 186 192 193 193 193 188 186 174 141 116 94 83 133 211 219 220 204 199
231 253 205 159 210 163 245 227 178 153 115 338 97 270 282 241 242 232 225 211 209 207 196 188 187 188 195 199 192 190 187 186 183 170 170 169 175 188 205 198 205 224 215 205
247 234 185 219 227 171 203 74 106 110 116 68 38 145 285 292 248 244 229 218 212 201 193 190 191 192 195 189 184 185 179 182 180 179 182 182 189 193 187 177 197 222 227 217
243 254 217 214 210 148 127 73 56 49 70 86 227 169 273 238 222 236 227 217 207 197 192 189 183 176 180 175 177 177 176 185 183 184 184 188 191 187 184 194 203 220 226 224
309 305 267 190 116 52 96 90 44 12 19 250 255 199 249 251 234 225 221 216 199 186 182 178 175 177 179 179 181 179 179 189 186 185 191 193 193 189 196 199 200 205 215 218
200 287 271 210 182 178 163 139 155 184 207 262 291 230 254 268 264 238 220 196 173 177 181 184 185 182 182 182 181 180 184 189 185 188 195 194 191 190 198 196 195 204 212 217
177 251 286 268 210 141 134 156 155 129 141 192 279 285 300 314 337 85 160 156 175 181 182 185 182 181 182 183 185 185 186 189 189 190 190 191 193 195 200 195 195 205 211 213
160 230 292 307 69 38 131 139 102 117 141 215 284 278 261 284 276 263 187 184 186 176 177 181 180 181 184 184 184 179 183 192 193 190 192 196 197 201 199 190 200 207 209 207
136 165 304 8 121 175 102 92 101 109 145 154 216 266 237 236 239 227 217 199 185 178 179 180 180 179 177 173 174 178 185 189 194 196 195 195 196 197 194 199 208 207 206 199
131 123 238 278 288 291 140 150 142 142 190 165 169 259 287 259 252 228 223 204 180 177 177 170 168 164 165 172 180 186 190 193 199 195 190 196 195 192 198 208 210 202 203 200
128 110 76 347 343 2 57 98 118 117 114 147 167 257 320 350 340 297 247 205 165 159 163 156 159 167 174 180 184 189 194 199 196 185 187 192 196 198 205 209 205 199 198 193
108 101 155 189 213 224 267 131 144 121 136 188 217 246 305 322 319 316 307 218 141 148 153 155 166 176 178 180 179 187 193 190 186 186 192 199 202 203 206 202 197 195 190 185
93 111 150 216 236 197 205 239 192 175 179 183 222 220 256 268 261 275 276 128 120 130 149 163 168 175 176 179 177 179 187 182 180 182 194 207 205 197 194 192 189 184 183 187
69 119 102 355 344 187 299 301 235 219 187 197 204 246 265 291 329 1 21 111 130 149 172 183 172 175 176 180 182 182 189 185 175 182 199 198 192 197 194 192 184 179 184 180
83 119 111 243 310 38 281 267 216 189 290 171 194 239 296 354 333 302 254 124 150 184 191 201 195 193 192 190 179 181 187 172 168 175 187 190 194 202 200 193 182 183 185 178
132 112 122 135 97 212 241 315 110 113 46 21 177 284 260 234 275 300 189 158 202 250 248 253 226 198 194 179 161 160 144 151 162 167 175 183 191 200 188 182 189 181 180 181
140 132 117 123 162 267 295 312 71 130 301 359 75 349 1 351 29 8 2 6 269 272 253 235 226 208 130 128 139 134 139 155 160 171 185 189 187 188 185 192 196 185 182 185
57 89 112 128 156 218 243 289 302 130 256 321 358 267 329 46 51 289 325 348 12 23 18 19 40 64 82 108 134 139 150 158 177 189 196 189 178 177 184 197 200 186 185 196
33 47 105 151 196 253 266 303 360 160 242 302 304 275 257 222 215 250 307 342 13 34 47 52 49 61 17 82 125 136 153 189 199 176 165 168 174 183 178 171 174 169 176 191
159 139 165 147 181 245 313 18 156 225 279 293 292 276 240 225 243 276 276 50 34 38 56 63 53 32 19 43 121 129 178 232 155 143 146 152 167 176 167 162 162 167 177 185
182 186 182 187 215 258 293 258 260 218 232 266 263 267 231 238 248 307 351 37 30 21 54 84 77 40 17 345 147 176 227 167 123 133 141 146 152 157 155 170 174 175 187 193
290 141 136 272 280 293 303 301 299 267 237 266 264 249 228 229 224 176 305 299 349 316 314 70 70 45 338 327 341 289 283 134 125 132 140 127 125 132 152 177 183 190 197 202
239 164 145 264 281 312 313 296 293 310 328 337 320 282 221 198 231 221 225 272 290 291 317 24 61 316 292 339 5 347 332 101 120 118 102 98 119 136 145 138 276 219 223 214
218 192 190 229 234 228 266 281 293 296 296 291 291 296 288 212 224 234 237 249 276 301 315 306 274 265 271 317 355 333 333 48 133 113 64 88 112 116 127 124 52 41 49 160